When you browse on this site, cookies collect data to enhance your experience and personalize the content and advertising you see.
Visit our Privacy Policy to learn more. By continuing to use the site, you agree to this use of cookies and data.
  • In Österreich
  • Länderverzeichnis
  • Für 7 Tage
  • Wassertemperatur
  • Wetterkarte
  • News
  • Widgets
  • user-avatar
    Anmelden

    Stündliche Wetter Rzhavka

    Heute, 18 November, Montag

    Zeit Temperatur Niederschläge Wind Luftdruck Luftfeuchtigkeit
    00:00 -2°C° 0 mm 2 m/S 759 mmHg 91%
    01:00 -1°C° 0 mm 2 m/S 759 mmHg 91%
    02:00 -1°C° 0 mm 2 m/S 759 mmHg 90%
    03:00 -1°C° 0 mm 2 m/S 759 mmHg 90%
    04:00 -1°C° 0 mm 2 m/S 759 mmHg 90%
    05:00 -1°C° 0 mm 2 m/S 759 mmHg 90%
    06:00 -1°C° 0 mm 2 m/S 759 mmHg 90%
    07:00 -1°C° 0 mm 2 m/S 758 mmHg 90%
    08:00 -1°C° 0 mm 2 m/S 758 mmHg 89%
    09:00 +1°C° 0 mm 2 m/S 758 mmHg 87%
    10:00 +1°C° 0 mm 2 m/S 759 mmHg 86%
    11:00 +1°C° 0 mm 2 m/S 758 mmHg 86%
    12:00 +1°C° 0 mm 2 m/S 758 mmHg 85%
    13:00 +2°C° 0 mm 2 m/S 758 mmHg 84%
    14:00 +2°C° 0 mm 2 m/S 758 mmHg 85%
    15:00 +1°C° 0 mm 3 m/S 757 mmHg 85%
    16:00 +1°C° 0 mm 3 m/S 757 mmHg 85%
    17:00 +1°C° 0 mm 3 m/S 757 mmHg 86%
    18:00 0°C° 0 mm 3 m/S 756 mmHg 87%
    19:00 0°C° 0 mm 3 m/S 756 mmHg 88%
    20:00 0°C° 0 mm 3 m/S 756 mmHg 89%
    21:00 -1°C° 0 mm 4 m/S 756 mmHg 89%
    22:00 -1°C° 0 mm 4 m/S 755 mmHg 90%
    23:00 -1°C° 0.1 mm 4 m/S 755 mmHg 90%

    Morgen, 19 November, Dienstag

    Zeit Temperatur Niederschläge Wind Luftdruck Luftfeuchtigkeit
    00:00 0°C° 0.1 mm 3 m/S 754 mmHg 91%
    01:00 0°C° 0.1 mm 3 m/S 754 mmHg 92%
    02:00 0°C° 0.3 mm 3 m/S 754 mmHg 92%
    03:00 -1°C° 0.3 mm 4 m/S 754 mmHg 93%
    04:00 -1°C° 0.3 mm 4 m/S 754 mmHg 93%
    05:00 -1°C° 0.1 mm 4 m/S 753 mmHg 93%
    06:00 0°C° 0.1 mm 3 m/S 753 mmHg 93%
    07:00 +1°C° 0.1 mm 3 m/S 753 mmHg 93%
    08:00 +1°C° 0 mm 3 m/S 753 mmHg 92%
    09:00 +2°C° 0 mm 3 m/S 753 mmHg 92%
    10:00 +2°C° 0 mm 3 m/S 754 mmHg 92%
    11:00 +1°C° 0 mm 4 m/S 754 mmHg 91%
    12:00 +1°C° 0 mm 4 m/S 754 mmHg 91%
    13:00 +1°C° 0 mm 4 m/S 754 mmHg 91%
    14:00 0°C° 0.1 mm 5 m/S 754 mmHg 91%
    15:00 -1°C° 0.1 mm 5 m/S 755 mmHg 91%
    16:00 -2°C° 0.1 mm 5 m/S 755 mmHg 91%
    17:00 -5°C° 0.1 mm 6 m/S 755 mmHg 87%
    18:00 -6°C° 0.1 mm 6 m/S 756 mmHg 84%
    19:00 -9°C° 0.1 mm 6 m/S 756 mmHg 80%
    20:00 -10°C° 0 mm 6 m/S 757 mmHg 78%
    21:00 -11°C° 0 mm 7 m/S 757 mmHg 76%
    22:00 -12°C° 0 mm 7 m/S 758 mmHg 75%
    23:00 -13°C° 0 mm 7 m/S 759 mmHg 72%

    übermorgen, 20 November, Mittwoch

    Zeit Temperatur Niederschläge Wind Luftdruck Luftfeuchtigkeit
    00:00 -13°C° 0 mm 7 m/S 759 mmHg 70%
    01:00 -14°C° 0 mm 7 m/S 760 mmHg 68%
    02:00 -15°C° 0 mm 6 m/S 760 mmHg 63%
    03:00 -15°C° 0 mm 6 m/S 761 mmHg 59%
    04:00 -16°C° 0 mm 6 m/S 762 mmHg 55%
    05:00 -16°C° 0 mm 6 m/S 762 mmHg 54%
    06:00 -17°C° 0 mm 6 m/S 762 mmHg 54%
    07:00 -17°C° 0 mm 6 m/S 763 mmHg 53%
    08:00 -17°C° 0 mm 6 m/S 763 mmHg 52%
    09:00 -17°C° 0 mm 6 m/S 764 mmHg 50%
    10:00 -18°C° 0 mm 7 m/S 765 mmHg 49%
    11:00 -17°C° 0 mm 6 m/S 765 mmHg 47%
    12:00 -16°C° 0 mm 6 m/S 765 mmHg 44%
    13:00 -16°C° 0 mm 6 m/S 766 mmHg 42%
    14:00 -16°C° 0 mm 6 m/S 766 mmHg 44%
    15:00 -16°C° 0 mm 6 m/S 766 mmHg 47%
    16:00 -16°C° 0 mm 6 m/S 766 mmHg 49%
    17:00 -15°C° 0 mm 5 m/S 767 mmHg 50%
    18:00 -17°C° 0 mm 5 m/S 767 mmHg 52%
    19:00 -17°C° 0 mm 5 m/S 768 mmHg 53%
    20:00 -17°C° 0 mm 5 m/S 768 mmHg 54%
    21:00 -16°C° 0 mm 4 m/S 768 mmHg 56%
    22:00 -16°C° 0 mm 4 m/S 769 mmHg 57%
    23:00 -16°C° 0 mm 4 m/S 769 mmHg 59%

    21 November, Donnerstag

    Zeit Temperatur Niederschläge Wind Luftdruck Luftfeuchtigkeit
    00:00 -15°C° 0 mm 3 m/S 769 mmHg 61%
    01:00 -15°C° 0 mm 3 m/S 769 mmHg 63%
    02:00 -15°C° 0 mm 3 m/S 769 mmHg 64%
    03:00 -15°C° 0 mm 2 m/S 769 mmHg 66%
    04:00 -15°C° 0 mm 2 m/S 769 mmHg 67%
    05:00 -15°C° 0 mm 2 m/S 769 mmHg 67%
    06:00 -15°C° 0 mm 2 m/S 769 mmHg 67%
    07:00 -15°C° 0 mm 2 m/S 769 mmHg 68%
    08:00 -14°C° 0 mm 2 m/S 769 mmHg 64%
    09:00 -13°C° 0 mm 2 m/S 769 mmHg 61%
    10:00 -12°C° 0 mm 2 m/S 770 mmHg 58%
    11:00 -10°C° 0 mm 2 m/S 769 mmHg 54%
    12:00 -9°C° 0 mm 2 m/S 769 mmHg 50%
    13:00 -9°C° 0 mm 3 m/S 769 mmHg 45%
    14:00 -9°C° 0 mm 3 m/S 769 mmHg 47%
    15:00 -9°C° 0 mm 3 m/S 768 mmHg 49%
    16:00 -9°C° 0 mm 2 m/S 768 mmHg 51%
    17:00 -10°C° 0 mm 3 m/S 768 mmHg 54%
    18:00 -10°C° 0 mm 3 m/S 768 mmHg 56%
    19:00 -12°C° 0 mm 3 m/S 768 mmHg 59%
    20:00 -12°C° 0 mm 3 m/S 767 mmHg 59%
    21:00 -12°C° 0 mm 3 m/S 767 mmHg 59%
    22:00 -12°C° 0 mm 3 m/S 767 mmHg 58%
    23:00 -12°C° 0 mm 3 m/S 767 mmHg 58%

    22 November, Freitag

    Zeit Temperatur Niederschläge Wind Luftdruck Luftfeuchtigkeit
    00:00 -12°C° 0 mm 3 m/S 767 mmHg 58%
    01:00 -10°C° 0 mm 2 m/S 767 mmHg 57%
    02:00 -12°C° 0 mm 2 m/S 767 mmHg 57%
    03:00 -12°C° 0 mm 2 m/S 767 mmHg 58%
    04:00 -12°C° 0 mm 2 m/S 766 mmHg 58%
    05:00 -12°C° 0 mm 2 m/S 766 mmHg 59%
    06:00 -12°C° 0 mm 2 m/S 766 mmHg 60%
    07:00 -12°C° 0 mm 2 m/S 766 mmHg 61%
    08:00 -10°C° 0 mm 2 m/S 766 mmHg 57%
    09:00 -10°C° 0 mm 3 m/S 767 mmHg 54%
    10:00 -10°C° 0 mm 3 m/S 767 mmHg 50%
    11:00 -9°C° 0 mm 3 m/S 767 mmHg 47%
    12:00 -8°C° 0 mm 3 m/S 767 mmHg 44%
    13:00 -7°C° 0 mm 3 m/S 767 mmHg 40%
    14:00 -6°C° 0 mm 2 m/S 766 mmHg 43%
    15:00 -6°C° 0 mm 2 m/S 766 mmHg 46%
    16:00 -7°C° 0 mm 2 m/S 766 mmHg 48%
    17:00 -7°C° 0 mm 2 m/S 766 mmHg 51%
    18:00 -8°C° 0 mm 2 m/S 766 mmHg 53%
    19:00 -8°C° 0 mm 2 m/S 766 mmHg 56%
    20:00 -8°C° 0 mm 2 m/S 766 mmHg 56%
    21:00 -9°C° 0 mm 2 m/S 766 mmHg 57%
    22:00 -8°C° 0 mm 1 m/S 766 mmHg 58%
    23:00 -8°C° 0 mm 1 m/S 766 mmHg 58%

    23 November, Samstag

    Zeit Temperatur Niederschläge Wind Luftdruck Luftfeuchtigkeit
    00:00 -8°C° 0 mm 1 m/S 766 mmHg 59%
    01:00 -8°C° 0 mm 1 m/S 766 mmHg 59%
    02:00 -8°C° 0 mm 1 m/S 766 mmHg 59%
    03:00 -8°C° 0 mm 1 m/S 766 mmHg 60%
    04:00 -8°C° 0 mm 1 m/S 765 mmHg 60%
    05:00 -9°C° 0 mm 1 m/S 765 mmHg 60%
    06:00 -9°C° 0 mm 1 m/S 765 mmHg 61%
    07:00 -9°C° 0 mm 1 m/S 765 mmHg 62%
    08:00 -8°C° 0 mm 1 m/S 765 mmHg 59%
    09:00 -7°C° 0 mm 1 m/S 765 mmHg 56%
    10:00 -7°C° 0 mm 1 m/S 765 mmHg 53%
    11:00 -6°C° 0 mm 2 m/S 765 mmHg 48%
    12:00 -5°C° 0 mm 2 m/S 765 mmHg 44%
    13:00 -4°C° 0 mm 2 m/S 765 mmHg 40%
    14:00 -5°C° 0 mm 2 m/S 765 mmHg 42%
    15:00 -5°C° 0 mm 2 m/S 764 mmHg 44%
    16:00 -6°C° 0 mm 2 m/S 764 mmHg 46%
    17:00 -6°C° 0 mm 2 m/S 764 mmHg 47%
    18:00 -7°C° 0 mm 2 m/S 764 mmHg 49%
    19:00 -7°C° 0 mm 2 m/S 764 mmHg 50%
    20:00 -8°C° 0 mm 2 m/S 764 mmHg 51%
    21:00 -8°C° 0 mm 2 m/S 763 mmHg 52%
    22:00 -8°C° 0 mm 2 m/S 763 mmHg 52%
    23:00 -8°C° 0 mm 2 m/S 763 mmHg 53%
    Mehr zeigen